User: anonymous   Login
Location: Newark
(41.0400°S, 62.7845°W)
Time: 21:41:57
(UTC+00:00)
Language:

MOZHAYETS 4 - Orbit

View from above orbital plane
View from above orbital plane
View from above satellite
View from above satellite

Ground track
Ground track

The orbit data is extracted from the following two-line orbital elements,

1 27939U 03042A   22028.45902643  .00000419  00000-0  83365-4 0  9999
2 27939  98.1678 169.4289 0011627 291.9346  68.0622 14.67115430980510
Epoch (UTC): 28 January 2022 11:00:59
Eccentricity: 0.0011627
inclination: 98.1678°
perigee height: 662 km
apogee height: 678 km
right ascension of ascending node: 169.4289°
argument of perigee: 291.9346°
revolutions per day: 14.67115430
mean anomaly at epoch: 68.0622°
orbit number at epoch: 98051

The dashed part of the orbit path shows where the satellite is in the earth's shadow,  

DLR